| time (UTC) | temp F | wind direction | speed knots | gust knots | rain 1hr in | rain 24hr in | rain mn in | humidity % | barometer mb |
| 20260507030840 | 44 | 194 | 3.5 | 3.5 | 0.00 | 0.48 | 0.48 | 87 | 1000.1 |
| 20260507025337 | 43 | 201 | 3.5 | 3.5 | 0.00 | 0.48 | 0.48 | 86 | 1000.0 |
| 20260507023834 | 43 | 242 | 3.5 | 3.5 | 0.00 | 0.48 | 0.48 | 85 | 1000.0 |
| 20260507022329 | 43 | 208 | 3.5 | 7.0 | 0.00 | 0.48 | 0.48 | 85 | 1000.2 |
| 20260507020825 | 43 | 199 | 4.3 | 6.1 | 0.00 | 0.48 | 0.48 | 86 | 1000.4 |
| 20260507015322 | 43 | 235 | 2.6 | 3.5 | 0.00 | 0.48 | 0.48 | 87 | 1000.4 |
| 20260507013817 | 43 | 159 | 2.6 | 2.6 | 0.00 | 0.48 | 0.48 | 87 | 1000.3 |
| 20260507012314 | 43 | 242 | 2.6 | 3.5 | 0.00 | 0.48 | 0.48 | 88 | 1000.2 |
| 20260507010813 | 43 | 148 | 1.7 | 2.6 | 0.00 | 0.48 | 0.48 | 88 | 1000.2 |
| 20260507005309 | 44 | 191 | 3.5 | 5.2 | 0.00 | 0.48 | 0.48 | 87 | 1000.4 |
| 20260507003806 | 44 | 149 | 0.9 | 0.9 | 0.00 | 0.48 | 0.48 | 88 | 999.9 |
| 20260507002306 | 44 | 176 | 2.6 | 2.6 | 0.00 | 0.48 | 0.48 | 87 | 999.8 |
| 20260507000802 | 45 | 143 | 0.9 | 0.9 | 0.00 | 0.48 | 0.48 | 86 | 999.4 |
| 20260506235256 | 46 | 159 | 1.7 | 1.7 | 0.00 | 0.48 | 0.48 | 83 | 999.3 |
| 20260506233754 | 46 | 122 | 0.0 | 0.0 | 0.00 | 0.48 | 0.48 | 82 | 999.0 |
| 20260506232253 | 46 | 147 | 0.9 | 0.9 | 0.00 | 0.48 | 0.48 | 81 | 999.3 |
| 20260506230751 | 47 | 151 | 0.9 | 0.9 | 0.00 | 0.48 | 0.48 | 80 | 999.1 |
| 20260506225248 | 47 | 139 | 0.9 | 0.9 | 0.00 | 0.48 | 0.48 | 78 | 999.1 |
| 20260506223743 | 47 | 174 | 1.7 | 1.7 | 0.00 | 0.48 | 0.48 | 77 | 999.0 |
| 20260506222238 | 48 | 175 | 1.7 | 1.7 | 0.00 | 0.48 | 0.48 | 75 | 999.0 |
| 20260506220737 | 48 | 174 | 1.7 | 1.7 | 0.00 | 0.48 | 0.48 | 76 | 999.0 |
| 20260506215236 | 48 | 158 | 1.7 | 1.7 | 0.00 | 0.48 | 0.48 | 77 | 999.1 |
| 20260506213734 | 48 | 163 | 1.7 | 1.7 | 0.00 | 0.48 | 0.48 | 78 | 998.9 |
| 20260506212229 | 48 | 358 | 3.5 | 3.5 | 0.00 | 0.48 | 0.48 | 78 | 998.7 |
| 20260506210724 | 48 | 23 | 2.6 | 2.6 | 0.00 | 0.48 | 0.48 | 77 | 998.5 |
| 20260506205219 | 48 | 65 | 1.7 | 1.7 | 0.00 | 0.48 | 0.48 | 78 | 998.7 |
| 20260506203718 | 48 | 351 | 2.6 | 2.6 | 0.00 | 0.48 | 0.48 | 77 | 998.5 |
| 20260506202214 | 48 | 55 | 1.7 | 2.6 | 0.00 | 0.48 | 0.48 | 79 | 998.6 |
| 20260506200711 | 47 | 68 | 2.6 | 2.6 | 0.00 | 0.48 | 0.48 | 81 | 998.4 |
| 20260506195206 | 47 | 68 | 2.6 | 2.6 | 0.00 | 0.48 | 0.48 | 83 | 998.5 |
| 20260506193704 | 46 | 65 | 2.6 | 2.6 | 0.00 | 0.48 | 0.48 | 84 | 998.3 |
| 20260506192159 | 46 | 44 | 3.5 | 3.5 | 0.00 | 0.48 | 0.48 | 85 | 998.5 |
| 20260506190656 | 46 | 33 | 2.6 | 2.6 | 0.00 | 0.48 | 0.48 | 83 | 998.6 |
| 20260506185152 | 46 | 78 | 1.7 | 1.7 | 0.00 | 0.48 | 0.48 | 84 | 998.6 |
| 20260506183649 | 46 | 40 | 4.3 | 7.8 | 0.00 | 0.48 | 0.48 | 85 | 998.5 |
| 20260506182145 | 46 | 67 | 3.5 | 5.2 | 0.00 | 0.48 | 0.48 | 87 | 998.3 |
| 20260506180643 | 46 | 41 | 6.1 | 6.1 | 0.00 | 0.48 | 0.48 | 87 | 998.5 |
| 20260506175138 | 45 | 47 | 7.0 | 7.8 | 0.00 | 0.48 | 0.48 | 89 | 998.3 |
| 20260506173637 | 45 | 58 | 1.7 | 2.6 | 0.00 | 0.48 | 0.48 | 88 | 998.0 |
| 20260506172132 | 45 | 42 | 4.3 | 5.2 | 0.00 | 0.48 | 0.48 | 88 | 997.9 |
| 20260506170631 | 45 | 33 | 3.5 | 6.1 | 0.00 | 0.48 | 0.48 | 90 | 998.1 |
| 20260506165127 | 45 | 81 | 2.6 | 3.5 | 0.00 | 0.48 | 0.48 | 90 | 998.1 |
| 20260506163623 | 45 | 34 | 4.3 | 6.1 | 0.00 | 0.48 | 0.48 | 91 | 998.2 |
| 20260506162122 | 44 | 46 | 3.5 | 2.6 | 0.00 | 0.48 | 0.48 | 91 | 998.7 |
| 20260506160619 | 44 | 27 | 4.3 | 7.0 | 0.07 | 0.48 | 0.48 | 92 | 998.5 |
| 20260506155116 | 44 | 91 | 1.7 | 3.5 | 0.00 | 0.47 | 0.47 | 93 | 998.8 |
| 20260506152732 | 44 | 80 | 2.6 | 2.6 | 0.05 | 0.47 | 0.47 | 93 | 998.5 |
| 20260506151231 | 44 | 72 | 2.6 | 2.6 | 0.00 | 0.46 | 0.46 | 92 | 998.7 |
| 20260506145727 | 44 | 54 | 3.5 | 5.2 | 0.00 | 0.46 | 0.46 | 92 | 998.5 |
| 20260506144224 | 44 | 55 | 3.5 | 5.2 | 0.00 | 0.46 | 0.46 | 92 | 998.2 |
| 20260506142723 | 44 | 69 | 1.7 | 1.7 | 0.00 | 0.45 | 0.45 | 94 | 998.4 |
| 20260506141223 | 43 | 39 | 3.5 | 5.2 | 0.05 | 0.45 | 0.45 | 93 | 998.5 |
| 20260506135719 | 43 | 69 | 3.5 | 6.1 | 0.00 | 0.44 | 0.44 | 93 | 998.5 |
| 20260506134215 | 43 | 78 | 1.7 | 2.6 | 0.00 | 0.43 | 0.43 | 94 | 998.8 |
| 20260506132712 | 43 | 68 | 4.3 | 5.2 | 0.05 | 0.42 | 0.42 | 94 | 998.3 |
| 20260506131208 | 43 | 89 | 1.7 | 1.7 | 0.00 | 0.41 | 0.41 | 94 | 998.4 |
| 20260506125706 | 43 | 82 | 1.7 | 1.7 | 0.00 | 0.40 | 0.40 | 94 | 998.5 |
| 20260506124205 | 42 | 84 | 1.7 | 3.5 | 0.05 | 0.40 | 0.40 | 94 | 998.4 |
| 20260506122703 | 43 | 65 | 4.3 | 5.2 | 0.07 | 0.39 | 0.39 | 94 | 998.3 |
| 20260506121200 | 43 | 81 | 1.7 | 1.7 | 0.05 | 0.38 | 0.38 | 93 | 998.5 |
| 20260506115659 | 42 | 58 | 1.7 | 1.7 | 0.07 | 0.37 | 0.37 | 94 | 999.0 |
| 20260506114158 | 43 | 101 | 0.9 | 1.7 | 0.05 | 0.36 | 0.36 | 94 | 998.7 |
| 20260506112655 | 43 | 90 | 1.7 | 1.7 | 0.07 | 0.35 | 0.35 | 94 | 999.1 |
| 20260506111153 | 43 | 96 | 0.9 | 0.9 | 0.00 | 0.33 | 0.33 | 95 | 999.2 |
| 20260506105650 | 0 | 0.0 | 0.0 | 0.00 | 0.00 | 0.00 | 998.8 | ||
| 20260506104149 | 0 | 0.0 | 0.0 | 0.00 | 0.00 | 0.00 | 998.7 | ||
| 20260506102646 | 0 | 0.0 | 0.0 | 0.00 | 0.00 | 0.00 | 999.1 | ||
| 20260506101143 | 0 | 0.0 | 0.0 | 0.00 | 0.00 | 0.00 | 999.1 | ||
| 20260506095638 | 0 | 0.0 | 0.0 | 0.00 | 0.00 | 0.00 | 999.1 | ||
| 20260506094135 | 0 | 0.0 | 0.0 | 0.00 | 0.00 | 0.00 | 998.6 | ||
| 20260506092634 | 0 | 0.0 | 0.0 | 0.00 | 0.00 | 0.00 | 998.6 | ||
| 20260506091131 | 44 | 117 | 0.0 | 0.0 | 0.07 | 0.17 | 0.17 | 95 | 998.5 |
| 20260506085628 | 44 | 134 | 0.0 | 0.0 | 0.07 | 0.15 | 0.15 | 95 | 998.9 |
| 20260506084124 | 44 | 134 | 0.0 | 0.0 | 0.00 | 0.14 | 0.14 | 95 | 999.2 |
| 20260506082620 | 44 | 134 | 0.0 | 0.0 | 0.00 | 0.13 | 0.13 | 95 | 998.7 |
| 20260506081118 | 44 | 123 | 0.9 | 0.0 | 0.00 | 0.13 | 0.13 | 95 | 998.9 |
| 20260506072609 | 44 | 129 | 0.9 | 0.9 | 0.00 | 0.13 | 0.13 | 95 | 998.9 |
| 20260506071108 | 44 | 118 | 0.0 | 0.0 | 0.35 | 0.13 | 0.13 | 94 | 999.0 |
| 20260506061101 | 44 | 141 | 0.0 | 0.9 | 0.19 | 0.07 | 0.07 | 93 | 998.7 |
| 20260506051051 | 44 | 149 | 1.7 | 1.7 | 0.07 | 0.04 | 0.04 | 94 | 999.6 |
| 20260506044046 | 45 | 168 | 1.7 | 1.7 | 0.00 | 0.02 | 0.02 | 94 | 1000.0 |
| 20260506042546 | 45 | 147 | 0.9 | 0.9 | 0.00 | 0.01 | 0.01 | 93 | 999.8 |
| 20260506041044 | 45 | 154 | 1.7 | 1.7 | 0.05 | 0.01 | 0.01 | 92 | 999.8 |
| 20260506035541 | 45 | 194 | 5.2 | 6.1 | 0.07 | 0.74 | 0.74 | 93 | 999.8 |
| 20260506034037 | 0 | 0.0 | 0.0 | 0.00 | 0.00 | 0.00 | 999.9 | ||
| 20260506032535 | 45 | 185 | 3.5 | 5.2 | 0.12 | 0.73 | 0.73 | 93 | 999.9 |